Location: Ladrillo (historical)
(32.8195°N, 117.2231°W)
Time: 07:56:31
(UTC+00:00)

FO-99 - Pass Details

Date: 16 April 2021
Orbit: 472 x 506 km, 97.2° (Epoch: 09 May)

Event Time Altitude Azimuth Distance (km) Brightness Sun altitude
Exits shadow 03:34:43 33° 111° (ESE) 874 ? -15.9°
Maximum altitude 03:35:40 39° 75° (ENE) 768 ? -16.0°
Drops below altitude 10° 03:39:09 10° 6° (N) 1,723 ? -16.7°
Sets 03:41:19 0° 358° (N) 2,612 ? -17.1°
